RH
83 83 85 84 83 83 90 96 100 96 93 100 98 96 100 80 67 62 72 67 48 58 44 42 39 32 26 23 26 48 38 66 76 57 52 37 39 46 50 73 89 92 79 56
83 82 83 83 83 82 95 98 99 97 95 99 98 83 89 85 72 67 82 85 64 43 59 57 40 38 28 34 28 45 43 76 91 76 60 60 54 51 50 60 82 69 88 78
86 85 82 82 82 82 94 99 99 100 99 93 91 84 83 87 74 74 74 86 79 70 63 62 54 46 52 53 30 60 48 63 49 48 46 62 72 53 50 57 73 68 67 61
88 88 90 83 82 82 94 99 100 90 98 99 90 76 75 89 78 69 71 83 92 82 70 84 80 53 65 59 61 54 50 63 63 50 56 44 54 60 57 58 58 72 54 54
93 90 88 88 86 83 98 100 99 98 99 88 90 81 85 74 76 64 83 89 82 88 94 72 86 74 70 68 71 49 70 88 75 79 54 52 60 54 52 59 56 55 54 56
91 90 88 87 88 88 98 96 97 82 89 94 82 80 74 81 72 67 71 74 80 84 86 91 94 93 87 72 76 73 73 88 91 78 71 75 89 64 56 52 48 52 67 53
90 88 87 90 92 90 98 95 84 88 96 94 88 70 74 74 71 81 67 72 85 76 87 90 90 92 92 90 94 86 87 76 93 100 93 99 80 59 50 52 46 44 46 52
89 86 87 88 92 90 96 94 80 91 95 87 75 68 76 78 70 86 79 76 72 80 88 100 100 100 100 100 98 95 91 84 100 99 98 91 78 73 67 65 62 45 48 53
90 89 91 91 88 90 94 91 95 92 87 87 68 81 74 84 86 83 96 81 91 88 99 100 99 98 100 100 100 96 98 94 96 99 99 97 80 60 61 57 76 60 49 54
90 90 93 92 90 92 87 98 90 92 94 98 76 80 83 73 81 91 97 96 100 91 99 100 99 99 96 98 98 99 100 100 100 99 99 93 75 42 60 83 73 66 48 50
87 93 91 89 90 83 67 97 96 90 99 100 98 96 92 83 79 86 100 99 100 100 99 99 100 100 98 99 97 98 96 97 99 99 99 95 65 44 68 66 51 53 70 64
94 89 83 83 80 74 77 98 97 96 96 99 97 98 97 98 96 88 98 98 97 96 99 100 100 100 100 98 98 92 98 92 95 90 89 69 59 50 52 49 42 47 60 62
92 90 89 84 78 75 87 98 97 96 100 100 98 100 98 95 98 98 97 99 94 97 92 99 100 99 95 98 98 98 92 82 96 91 77 72 46 50 48 46 49 48 60 52
95 92 83 79 84 86 84 95 97 93 98 98 99 90 98 92 98 98 97 98 97 95 96 100 100 99 95 96 88 94 91 86 90 89 73 56 48 45 44 55 57 55 52 46
97 92 92 84 84 86 93 98 99 93 90 97 99 95 90 91 98 98 98 99 97 100 100 100 100 98 97 97 93 97 92 90 87 88 72 71 64 53 57 58 56 49 45 43
92 94 97 91 90 84 95 100 96 96 94 97 99 97 97 91 97 98 97 97 98 100 100 100 100 95 93 98 98 78 72 73 68 70 63 56 59 55 52 53 50 44 42 42
92 94 94 94 95 96 98 99 97 94 96 99 99 98 99 93 93 99 99 97 100 99 100 100 99 96 95 98 98 73 69 65 66 55 56 62 52 56 51 48 45 47 41 40
95 95 95 96 93 93 97 99 94 92 97 97 98 98 97 97 100 100 100 100 100 100 100 99 98 99 99 98 82 59 48 60 60 56 53 52 50 49 47 44 42 44 45 48
94 92 91 93 97 100 100 88 90 96 95 98 98 97 98 98 100 100 99 100 98 99 99 98 98 98 97 85 75 68 54 70 68 54 50 49 54 50 47 43 43 47 48 50
92 92 98 100 100 91 86 96 99 100 99 98 98 93 99 97 98 99 97 98 98 98 96 99 98 94 76 58 53 48 49 62 52 67 64 59 56 53 49 44 44 48 50 56
95 100 99 99 87 89 96 99 97 95 99 97 96 92 98 98 96 99 95 98 96 97 86 95 93 93 76 54 54 50 59 56 49 47 51 49 57 58 55 53 60 58 57 59
89 94 94 94 89 97 92 99 98 98 96 99 98 99 94 99 97 97 99 96 96 90 85 90 91 87 62 56 51 60 60 57 55 49 58 64 58 56 58 61 61 58 64 74
76 85 90 90 94 96 90 100 98 99 100 98 99 99 99 100 99 98 98 97 96 81 93 88 93 80 61 52 55 56 60 66 67 63 63 66 69 67 62 65 66 68 70 75
80 86 93 88 95 90 82 85 95 96 97 97 96 99 98 99 98 97 96 97 87 95 98 86 88 69 62 53 55 56 68 74 77 75 72 73 72 76 79 77 76 77 81 90
82 80 93 98 94 95 96 95 95 92 87 95 99 98 98 98 97 96 88 98 98 94 90 92 88 71 59 59 64 67 77 83 83 80 83 84 82 81 89 90 86 83 90 91
84 81 92 97 94 99 99 96 98 99 98 90 91 97 98 98 96 86 86 89 90 89 95 92 80 67 64 68 72 80 81 82 88 88 87 89 85 88 98 99 98 97 95 98
81 96 98 96 97 98 99 96 100 99 91 94 85 88 74 90 91 76 86 91 92 96 95 94 80 70 77 81 84 89 86 88 90 92 94 97 96 98 98 98 99 97 97 98
Wind_Speed
27 27 27 28 28 27 22 12 13 8 16 14 11 16 7 10 17 21 15 8 17 6 13 21 17 23 24 15 27 34 27 5 5 14 3 14 26 26 21 8 4 5 6 21
30 31 31 31 30 30 13 10 11 10 18 16 14 14 18 10 17 16 14 9 11 21 5 7 23 13 14 9 26 28 20 7 3 6 6 3 17 13 16 12 3 18 8 5
32 34 35 35 34 35 16 8 8 5 16 12 19 22 21 22 20 16 21 6 7 4 11 5 10 13 5 4 23 13 19 9 27 23 11 10 8 19 20 19 17 11 30 15
34 35 38 38 39 39 19 12 6 8 10 17 24 23 11 16 19 21 12 12 13 6 14 1 7 9 4 3 3 17 19 24 15 18 1 18 11 13 21 30 25 20 16 27
31 31 35 40 42 43 21 11 8 5 5 21 24 26 22 23 19 16 27 19 24 13 5 9 3 3 5 8 2 20 7 4 7 9 16 11 10 17 22 24 24 28 23 24
23 23 24 33 43 39 10 9 4 11 13 19 22 24 28 25 16 22 22 28 23 20 14 1 2 2 3 1 9 12 14 7 5 15 6 3 16 29 24 21 24 20 27 16
24 24 27 26 34 45 5 11 11 9 10 16 22 26 21 25 21 22 27 23 24 10 11 7 2 3 6 5 4 1 7 9 3 2 8 13 9 9 24 26 25 22 24 9
23 22 24 28 30 46 7 12 11 6 7 17 18 22 24 16 20 17 22 18 15 11 5 4 4 1 2 1 4 2 3 9 4 5 11 5 11 5 8 15 26 27 21 9
18 19 19 29 34 42 13 9 4 6 10 14 14 18 17 14 14 18 14 12 10 11 4 4 8 6 5 7 4 5 4 6 10 4 8 13 1 8 7 5 21 9 15 13
14 9 15 29 39 34 15 4 1 7 6 1 11 9 15 12 10 7 8 14 7 6 7 4 5 5 3 8 11 7 4 5 16 6 5 8 6 4 5 12 6 6 18 14
14 15 20 36 33 33 15 4 3 6 5 1 3 4 5 6 12 14 4 8 7 3 8 8 4 5 6 4 4 6 9 9 4 3 1 12 6 5 10 5 2 2 3 6
19 25 32 34 27 19 12 5 4 5 7 4 2 4 3 4 4 7 5 5 5 7 5 4 4 2 3 6 6 4 4 5 8 9 7 2 4 2 1 2 3 4 6 5
13 23 26 25 23 18 10 4 4 5 5 4 3 2 3 3 5 1 10 3 4 5 3 5 3 4 4 6 5 5 2 1 4 4 6 7 4 2 2 2 1 3 5 12
12 22 32 29 17 16 9 4 0 7 4 4 1 2 3 3 3 8 6 0 3 2 2 4 3 4 4 3 2 4 4 9 6 4 3 2 4 6 5 5 9 12 8 10
10 19 21 22 14 16 10 6 4 2 6 4 3 3 2 5 8 11 6 8 4 2 3 3 3 4 4 2 1 3 6 8 8 8 10 8 6 7 5 10 10 14 20 15
13 14 11 25 24 21 5 3 2 1 4 5 3 0 2 3 2 2 9 6 2 0 3 3 2 3 4 5 5 5 11 6 3 5 6 3 5 8 7 7 12 12 14 17
18 20 19 13 16 8 4 3 4 4 2 3 2 1 2 1 3 2 2 3 1 1 2 2 3 2 5 3 5 5 10 10 5 9 12 5 7 8 9 12 11 12 14 12
18 21 22 23 24 11 5 3 7 3 6 3 2 3 2 1 2 2 1 2 2 3 2 1 3 3 1 4 6 4 5 8 8 10 2 8 8 14 13 13 15 15 14 13
21 20 18 8 6 3 2 12 11 4 4 4 3 4 2 2 2 1 3 2 2 2 1 0 1 3 5 6 5 5 6 8 9 6 9 14 17 16 16 15 14 17 11 12
12 8 4 3 2 13 3 5 3 3 2 2 2 0 3 2 1 2 2 0 1 1 0 2 0 3 5 4 4 4 6 8 14 15 9 14 14 15 16 14 13 16 14 11
3 3 3 3 3 1 3 3 4 2 2 2 2 3 4 1 2 3 3 2 2 2 1 2 1 4 4 8 8 6 6 11 12 11 13 17 20 18 16 11 9 12 12 12
4 8 4 2 2 3 4 1 2 2 2 3 2 2 3 2 2 3 2 2 1 3 2 5 3 6 4 6 6 6 7 8 9 13 14 12 14 15 13 13 12 11 9 10
2 5 4 3 3 6 5 5 2 2 4 5 3 3 2 3 2 3 2 3 3 3 1 5 6 3 2 5 6 9 9 10 11 11 9 13 11 11 15 12 8 10 9 8
3 4 3 3 1 3 2 2 3 2 3 7 4 3 3 2 3 3 5 2 3 3 3 7 3 5 6 5 6 11 8 11 12 12 12 13 12 10 8 10 10 10 9 5
2 3 2 2 0 1 1 2 3 2 5 5 3 3 2 1 4 2 4 3 4 5 6 4 3 5 8 8 9 11 11 10 10 10 11 11 11 12 10 7 7 10 10 8
2 3 2 1 1 1 1 4 4 3 3 3 3 3 2 1 2 2 4 4 6 5 3 2 3 5 7 8 8 8 9 11 10 9 10 10 10 12 11 10 10 10 10 11
3 2 1 2 1 2 2 3 3 2 1 2 3 3 1 2 1 2 3 4 2 3 2 3 4 8 9 10 10 11 11 12 11 11 10 12 11 12 12 13 6 9 9 9
Wind_Direction
246 242 232 226 217 209 199 206 222 156 159 205 192 205 198 208 225 217 228 283 228 235 194 205 196 217 204 202 183 194 204 131 178 206 296 217 208 213 202 201 230 241 244 249
248 238 229 220 213 198 197 212 207 173 175 212 197 193 212 221 234 224 226 244 224 222 245 207 215 211 224 186 185 188 179 192 94 320 302 230 208 212 209 218 78 220 205 237
250 239 229 220 210 199 188 205 193 208 196 205 186 192 215 207 218 251 202 248 273 209 213 254 215 222 177 213 195 172 172 188 209 216 235 161 188 202 209 207 227 214 235 251
255 244 229 217 207 195 186 195 193 177 193 192 184 192 216 208 213 215 221 221 249 208 214 185 232 197 146 28 233 179 181 221 212 231 219 199 188 192 200 216 222 210 241 241
252 246 233 219 206 192 196 193 171 154 178 182 187 194 208 207 197 217 218 222 216 233 235 189 266 177 201 176 61 189 190 243 144 215 217 218 236 224 217 219 222 243 251 252
246 242 232 222 203 184 178 167 178 152 169 185 184 196 207 209 204 214 219 219 214 221 221 118 74 219 330 200 153 176 179 127 128 224 166 166 252 226 225 227 227 225 232 243
237 235 229 220 214 184 119 173 157 160 164 187 191 195 197 207 211 226 219 220 203 227 125 101 82 24 42 55 43 58 149 159 118 192 135 216 249 204 222 229 237 232 244 204
236 229 226 206 204 187 155 160 166 139 147 178 201 208 193 198 218 235 239 214 215 148 108 105 187 256 102 235 130 225 97 168 166 190 201 298 262 208 160 187 238 230 233 192
221 230 236 213 187 180 154 148 151 144 138 193 184 189 188 191 208 232 262 243 194 142 123 138 202 181 163 177 187 176 129 211 202 168 200 223 21 190 178 100 266 177 185 177
214 248 232 200 166 156 160 117 94 96 121 61 173 172 193 191 189 222 211 204 257 187 160 169 171 191 196 168 171 152 132 144 208 188 227 280 231 178 143 169 253 217 183 169
202 160 119 134 139 153 162 102 350 119 89 47 39 71 122 169 192 209 183 200 198 286 154 179 178 167 199 137 143 170 160 153 170 146 160 255 154 83 172 219 30 48 161 163
129 133 136 135 142 134 110 81 346 60 85 141 67 91 108 109 351 236 217 270 160 185 128 145 134 139 146 158 193 180 184 174 169 188 206 265 246 195 179 204 175 162 124 114
144 160 152 145 139 130 99 114 185 70 93 54 70 160 60 346 188 299 230 252 265 187 146 125 122 166 151 171 204 86 240 174 150 108 239 229 221 253 215 164 104 90 113 129
141 157 164 163 141 103 97 106 307 85 86 119 153 131 165 261 232 193 241 279 290 47 81 107 150 132 195 177 143 137 175 150 165 255 262 7 278 232 178 126 112 105 100 127
107 161 168 178 146 109 77 71 29 86 124 155 141 108 205 254 255 233 176 202 167 207 120 117 147 126 137 66 82 209 189 171 182 212 178 183 209 192 142 140 143 137 128 124
133 110 107 152 127 123 92 79 326 29 103 122 136 242 228 270 231 279 221 219 135 36 107 134 162 128 130 160 199 223 193 205 202 204 165 121 96 123 141 141 150 139 133 133
146 145 140 130 106 68 92 182 145 138 191 89 29 71 149 233 101 80 52 16 68 97 97 127 134 149 157 160 207 217 199 206 168 128 104 66 164 171 149 130 130 117 114 119
140 133 124 109 96 71 28 13 61 93 83 78 119 284 192 338 89 94 354 61 28 32 65 266 128 128 139 202 219 234 181 152 155 180 137 164 134 124 127 126 127 119 119 118
78 94 93 66 40 80 140 94 66 50 90 121 121 174 199 100 72 92 53 29 57 342 60 307 98 134 213 222 185 199 190 173 176 140 124 135 139 139 136 135 136 122 128 127
56 39 57 74 64 112 73 26 50 41 42 66 122 264 103 89 64 80 129 55 97 177 151 120 151 245 248 237 208 223 198 163 137 121 130 137 139 143 143 154 144 149 151 140
63 66 53 77 260 66 46 78 95 147 51 153 166 165 129 69 147 84 34 65 35 50 221 191 175 266 237 192 192 211 172 159 174 158 157 159 154 154 148 138 128 129 137 148
133 110 125 163 54 63 86 110 170 176 178 131 126 110 105 99 83 102 141 117 121 244 134 67 266 255 240 157 152 138 135 140 132 143 146 146 149 149 139 135 133 141 130 126
70 54 63 56 337 51 132 192 213 159 162 160 146 133 127 120 95 87 110 132 206 102 107 221 226 257 215 141 122 112 104 101 99 98 105 117 111 117 131 126 126 128 121 133
86 122 138 169 227 247 184 186 171 207 124 131 113 118 125 134 128 151 149 141 156 192 228 234 236 204 142 117 113 113 102 104 104 107 111 113 115 102 92 112 128 126 122 104
79 69 160 200 60 101 208 167 117 101 120 111 115 70 85 109 135 188 104 93 215 205 228 235 248 129 118 109 93 102 105 106 103 115 111 107 107 103 86 71 96 100 101 102
68 65 67 61 102 65 95 109 99 64 107 96 64 96 83 109 108 107 211 158 222 234 220 262 101 98 96 97 96 100 103 99 96 94 101 100 105 108 101 82 81 89 107 110
45 48 61 92 84 81 55 92 76 137 127 115 164 108 139 97 135 201 193 208 280 318 12 29 63 111 116 110 101 92 101 97 96 96 90 95 99 107 105 103 95 104 109 110